• In Uzbekistan
  • List of Countries
  • For 7 days
  • Water Temperature
  • Satellite Maps
  • Weather Map
  • Weather Widgets
  • user-avatar
    Login

    Hourly Weather Balzers

    Today, 18 September, Tuesday

    Time Temperature Precipitation Wind Pressure Humidity
    00:00 +18°C° 0 mm 2 mps 717 mmHg 88%
    01:00 +18°C° 0 mm 2 mps 717 mmHg 87%
    02:00 +18°C° 0 mm 2 mps 717 mmHg 87%
    03:00 +17°C° 0 mm 2 mps 716 mmHg 87%
    04:00 +17°C° 0 mm 2 mps 716 mmHg 87%
    05:00 +17°C° 0 mm 2 mps 717 mmHg 85%
    06:00 +17°C° 0 mm 2 mps 717 mmHg 84%
    07:00 +18°C° 0 mm 2 mps 717 mmHg 82%
    08:00 +20°C° 0 mm 2 mps 717 mmHg 74%
    09:00 +23°C° 0 mm 1 mps 717 mmHg 67%
    10:00 +25°C° 0 mm 1 mps 717 mmHg 59%
    11:00 +26°C° 0.4 mm 1 mps 717 mmHg 59%
    12:00 +26°C° 0.4 mm 1 mps 717 mmHg 58%
    13:00 +26°C° 0 mm 1 mps 717 mmHg 59%
    14:00 +26°C° 0.9 mm 1 mps 717 mmHg 62%
    15:00 +26°C° 0.9 mm 1 mps 717 mmHg 64%
    16:00 +25°C° 0.9 mm 1 mps 716 mmHg 67%
    17:00 +23°C° 0.6 mm 1 mps 716 mmHg 72%
    18:00 +22°C° 0.6 mm 1 mps 716 mmHg 78%
    19:00 +20°C° 0.6 mm 1 mps 716 mmHg 83%
    20:00 +19°C° 0 mm 1 mps 717 mmHg 83%
    21:00 +19°C° 0 mm 1 mps 717 mmHg 82%
    22:00 +18°C° 0 mm 1 mps 717 mmHg 81%
    23:00 +18°C° 0 mm 1 mps 717 mmHg 81%

    Tomorrow, 19 September, Wednesday

    Time Temperature Precipitation Wind Pressure Humidity
    00:00 +18°C° 0 mm 1 mps 717 mmHg 80%
    01:00 +18°C° 0 mm 1 mps 717 mmHg 79%
    02:00 +16°C° 0 mm 1 mps 717 mmHg 79%
    03:00 +16°C° 0 mm 1 mps 717 mmHg 78%
    04:00 +16°C° 0 mm 1 mps 717 mmHg 77%
    05:00 +16°C° 0 mm 1 mps 717 mmHg 76%
    06:00 +18°C° 0 mm 1 mps 718 mmHg 76%
    07:00 +18°C° 0 mm 1 mps 718 mmHg 75%
    08:00 +21°C° 0 mm 1 mps 718 mmHg 66%
    09:00 +23°C° 0 mm 1 mps 718 mmHg 57%
    10:00 +26°C° 0 mm 1 mps 719 mmHg 49%
    11:00 +26°C° 0 mm 1 mps 719 mmHg 46%
    12:00 +27°C° 0 mm 1 mps 719 mmHg 44%
    13:00 +28°C° 0 mm 1 mps 718 mmHg 42%
    14:00 +27°C° 0 mm 1 mps 718 mmHg 45%
    15:00 +27°C° 0 mm 1 mps 718 mmHg 48%
    16:00 +27°C° 0 mm 1 mps 718 mmHg 51%
    17:00 +24°C° 0 mm 1 mps 718 mmHg 62%
    18:00 +22°C° 0 mm 1 mps 718 mmHg 73%
    19:00 +19°C° 0 mm 1 mps 718 mmHg 84%
    20:00 +19°C° 0 mm 1 mps 718 mmHg 84%
    21:00 +19°C° 0 mm 1 mps 718 mmHg 83%
    22:00 +19°C° 0 mm 1 mps 719 mmHg 83%
    23:00 +18°C° 0 mm 1 mps 719 mmHg 82%

    Day after tomorrow, 20 September, Thursday

    Time Temperature Precipitation Wind Pressure Humidity
    00:00 +18°C° 0 mm 1 mps 718 mmHg 81%
    01:00 +18°C° 0 mm 1 mps 718 mmHg 80%
    02:00 +18°C° 0 mm 1 mps 718 mmHg 79%
    03:00 +16°C° 0 mm 1 mps 718 mmHg 78%
    04:00 +16°C° 0 mm 1 mps 718 mmHg 77%
    05:00 +16°C° 0 mm 1 mps 718 mmHg 76%
    06:00 +18°C° 0 mm 1 mps 718 mmHg 75%
    07:00 +18°C° 0 mm 1 mps 718 mmHg 74%
    08:00 +21°C° 0 mm 1 mps 718 mmHg 65%
    09:00 +23°C° 0 mm 1 mps 718 mmHg 57%
    10:00 +24°C° 0 mm 0 mps 719 mmHg 48%
    11:00 +27°C° 0 mm 1 mps 718 mmHg 46%
    12:00 +28°C° 0 mm 1 mps 718 mmHg 44%
    13:00 +28°C° 0 mm 1 mps 718 mmHg 42%
    14:00 +28°C° 0 mm 1 mps 718 mmHg 46%
    15:00 +28°C° 0 mm 2 mps 717 mmHg 49%
    16:00 +27°C° 0 mm 2 mps 717 mmHg 53%
    17:00 +25°C° 0.1 mm 1 mps 717 mmHg 63%
    18:00 +23°C° 0.1 mm 1 mps 716 mmHg 73%
    19:00 +20°C° 0.1 mm 1 mps 716 mmHg 84%
    20:00 +20°C° 0 mm 1 mps 716 mmHg 84%
    21:00 +19°C° 0 mm 2 mps 716 mmHg 83%
    22:00 +19°C° 0 mm 2 mps 716 mmHg 83%
    23:00 +19°C° 0 mm 2 mps 716 mmHg 84%

    21 September, Friday

    Time Temperature Precipitation Wind Pressure Humidity
    00:00 +19°C° 0 mm 2 mps 716 mmHg 84%
    01:00 +18°C° 0 mm 2 mps 716 mmHg 85%
    02:00 +18°C° 0 mm 2 mps 715 mmHg 85%
    03:00 +18°C° 0 mm 2 mps 715 mmHg 85%
    04:00 +17°C° 0 mm 2 mps 715 mmHg 84%
    05:00 +18°C° 0 mm 2 mps 715 mmHg 84%
    06:00 +18°C° 0 mm 2 mps 715 mmHg 83%
    07:00 +18°C° 0 mm 2 mps 715 mmHg 82%
    08:00 +20°C° 0 mm 2 mps 715 mmHg 73%
    09:00 +24°C° 0 mm 2 mps 715 mmHg 64%
    10:00 +26°C° 0 mm 2 mps 715 mmHg 55%
    11:00 +27°C° 0 mm 2 mps 714 mmHg 53%
    12:00 +28°C° 0 mm 2 mps 714 mmHg 50%
    13:00 +29°C° 0 mm 2 mps 714 mmHg 47%
    14:00 +28°C° 0 mm 2 mps 713 mmHg 50%
    15:00 +28°C° 0 mm 2 mps 712 mmHg 53%
    16:00 +27°C° 0 mm 2 mps 712 mmHg 57%
    17:00 +25°C° 0.4 mm 3 mps 712 mmHg 67%
    18:00 +22°C° 0.4 mm 3 mps 713 mmHg 78%
    19:00 +19°C° 0.4 mm 3 mps 713 mmHg 88%
    20:00 +19°C° 1.4 mm 3 mps 714 mmHg 91%
    21:00 +18°C° 1.4 mm 3 mps 715 mmHg 94%
    22:00 +17°C° 1.4 mm 3 mps 715 mmHg 96%
    23:00 +16°C° 1.7 mm 3 mps 716 mmHg 97%

    22 September, Saturday

    Time Temperature Precipitation Wind Pressure Humidity
    00:00 +14°C° 1.7 mm 3 mps 716 mmHg 97%
    01:00 +13°C° 1.7 mm 3 mps 716 mmHg 97%
    02:00 +13°C° 0.8 mm 2 mps 716 mmHg 97%
    03:00 +12°C° 0.8 mm 2 mps 717 mmHg 96%
    04:00 +10°C° 0.8 mm 2 mps 717 mmHg 96%
    05:00 +10°C° 0 mm 2 mps 717 mmHg 95%
    06:00 +10°C° 0 mm 2 mps 717 mmHg 95%
    07:00 +10°C° 0 mm 2 mps 718 mmHg 94%
    08:00 +12°C° 0 mm 2 mps 718 mmHg 86%
    09:00 +14°C° 0 mm 2 mps 718 mmHg 78%
    10:00 +15°C° 0 mm 2 mps 718 mmHg 70%
    11:00 +16°C° 0 mm 2 mps 718 mmHg 63%
    12:00 +17°C° 0 mm 2 mps 718 mmHg 56%
    13:00 +19°C° 0 mm 2 mps 717 mmHg 49%
    14:00 +18°C° 0 mm 2 mps 717 mmHg 51%
    15:00 +18°C° 0 mm 2 mps 717 mmHg 52%
    16:00 +18°C° 0 mm 2 mps 717 mmHg 53%
    17:00 +16°C° 0 mm 2 mps 718 mmHg 62%
    18:00 +14°C° 0 mm 1 mps 718 mmHg 71%
    19:00 +12°C° 0 mm 1 mps 718 mmHg 79%
    20:00 +12°C° 0 mm 1 mps 718 mmHg 80%
    21:00 +11°C° 0 mm 1 mps 719 mmHg 80%
    22:00 +11°C° 0 mm 1 mps 719 mmHg 81%
    23:00 +11°C° 0 mm 1 mps 718 mmHg 79%

    23 September, Sunday

    Time Temperature Precipitation Wind Pressure Humidity
    00:00 +11°C° 0 mm 1 mps 718 mmHg 76%
    01:00 +11°C° 0 mm 1 mps 718 mmHg 74%
    02:00 +12°C° 0 mm 1 mps 717 mmHg 71%
    03:00 +12°C° 0 mm 1 mps 717 mmHg 69%
    04:00 +12°C° 0 mm 1 mps 717 mmHg 66%
    05:00 +13°C° 0 mm 1 mps 716 mmHg 64%
    06:00 +14°C° 0 mm 1 mps 716 mmHg 61%
    07:00 +15°C° 0 mm 2 mps 716 mmHg 59%
    08:00 +18°C° 0 mm 2 mps 715 mmHg 54%
    09:00 +20°C° 0 mm 2 mps 715 mmHg 50%
    10:00 +24°C° 0 mm 2 mps 714 mmHg 45%
    11:00 +25°C° 0 mm 2 mps 714 mmHg 45%
    12:00 +26°C° 0 mm 2 mps 713 mmHg 45%
    13:00 +27°C° 0 mm 3 mps 713 mmHg 46%
    14:00 +27°C° 0 mm 3 mps 712 mmHg 49%
    15:00 +27°C° 0 mm 3 mps 711 mmHg 53%
    16:00 +26°C° 0 mm 3 mps 710 mmHg 56%
    17:00 +24°C° 0.1 mm 3 mps 709 mmHg 63%
    18:00 +21°C° 0.1 mm 4 mps 708 mmHg 70%
    19:00 +19°C° 0.1 mm 4 mps 708 mmHg 77%
    20:00 +17°C° 2 mm 5 mps 708 mmHg 82%
    21:00 +16°C° 2 mm 6 mps 708 mmHg 88%
    22:00 +14°C° 2 mm 7 mps 709 mmHg 93%
    23:00 +12°C° 2.6 mm 7 mps 709 mmHg 93%
    Show more